Time,TemperatureF,DewpointF,PressureIn,WindDirection,WindDirectionDegrees,WindSpeedMPH,WindSpeedGustMPH,Humidity,HourlyPrecipIn,Conditions,Clouds,dailyrainin,SoftwareType,DateUTC
2013-12-10 00:00:00,82.6,62.6,29.47,NNW,340,0.0,0.0,51,0.00,CLR,,0.00,WeatherDisplay:10.37,2013-12-09 13:00:00,
2013-12-10 00:05:00,82.6,63.2,29.47,North,359,0.0,1.0,52,0.00,CLR,,0.00,WeatherDisplay:10.37,2013-12-09 13:05:00,
2013-12-10 00:10:00,82.4,63.0,29.47,North,2,1.0,4.0,52,0.00,CLR,,0.00,WeatherDisplay:10.37,2013-12-09 13:10:00,
2013-12-10 00:15:00,82.2,62.8,29.47,North,349,1.0,3.0,52,0.00,CLR,,0.00,WeatherDisplay:10.37,2013-12-09 13:15:00,
2013-12-10 00:20:00,82.2,61.7,29.48,NNW,345,1.0,6.0,50,0.00,CLR,,0.00,WeatherDisplay:10.37,2013-12-09 13:20:00,
2013-12-10 00:25:00,82.2,61.2,29.48,NNW,327,2.0,6.0,49,0.00,CLR,,0.00,WeatherDisplay:10.37,2013-12-09 13:25:00,
2013-12-10 00:30:00,82.6,61.5,29.48,NNW,337,5.0,9.0,49,0.00,CLR,,0.00,WeatherDisplay:10.37,2013-12-09 13:30:00,
2013-12-10 00:35:00,82.6,61.5,29.48,NNW,338,3.0,9.0,49,0.00,CLR,,0.00,WeatherDisplay:10.37,2013-12-09 13:35:00,
2013-12-10 00:40:00,82.6,61.5,29.49,NNW,343,2.0,7.0,49,0.00,CLR,,0.00,WeatherDisplay:10.37,2013-12-09 13:40:00,
2013-12-10 00:45:00,82.6,61.5,29.49,North,357,7.0,12.0,49,0.00,CLR,,0.00,WeatherDisplay:10.37,2013-12-09 13:45:00,
2013-12-10 00:50:00,82.6,62.1,29.49,North,350,3.0,13.0,50,0.00,CLR,,0.00,WeatherDisplay:10.37,2013-12-09 13:50:00,
2013-12-10 00:55:00,82.2,61.7,29.49,NNW,348,7.0,15.0,50,0.00,CLR,,0.00,WeatherDisplay:10.37,2013-12-09 13:55:00,
2013-12-10 01:00:00,82.0,62.1,29.49,NNW,345,3.0,12.0,51,0.00,CLR,,0.00,WeatherDisplay:10.37,2013-12-09 14:00:00,
2013-12-10 01:05:00,82.0,62.0,29.49,NNW,335,1.0,12.0,51,0.00,CLR,,0.00,WeatherDisplay:10.37,2013-12-09 14:05:00,
2013-12-10 01:10:00,81.7,62.3,29.49,NW,323,2.0,8.0,52,0.00,CLR,,0.00,WeatherDisplay:10.37,2013-12-09 14:10:00,
2013-12-10 01:15:00,81.3,62.6,29.50,NNW,328,2.0,8.0,53,0.00,CLR,,0.00,WeatherDisplay:10.37,2013-12-09 14:15:00,
2013-12-10 01:20:00,81.1,62.4,29.49,NNW,332,5.0,13.0,53,0.00,CLR,,0.00,WeatherDisplay:10.37,2013-12-09 14:20:00,
2013-12-10 01:25:00,80.8,62.6,29.49,NW,312,5.0,10.0,54,0.00,CLR,,0.00,WeatherDisplay:10.37,2013-12-09 14:25:00,
2013-12-10 01:31:00,80.4,62.2,29.48,NW,318,2.0,8.0,54,0.00,CLR,,0.00,WeatherDisplay:10.37,2013-12-09 14:31:00,
2013-12-10 01:40:00,80.4,62.2,29.47,North,359,2.0,9.0,54,0.00,CLR,,0.00,WeatherDisplay:10.37,2013-12-09 14:40:00,
2013-12-10 01:45:00,80.2,62.1,29.47,NNW,332,2.0,5.0,54,0.00,CLR,,0.00,WeatherDisplay:10.37,2013-12-09 14:45:00,
2013-12-10 01:50:00,80.2,62.1,29.47,NNW,336,2.0,6.0,54,0.00,CLR,,0.00,WeatherDisplay:10.37,2013-12-09 14:50:00,
2013-12-10 01:55:00,80.2,62.1,29.48,NNW,335,3.0,5.0,54,0.00,CLR,,0.00,WeatherDisplay:10.37,2013-12-09 14:55:00,
2013-12-10 02:00:00,80.2,62.1,29.48,NNW,345,1.0,6.0,54,0.00,CLR,,0.00,WeatherDisplay:10.37,2013-12-09 15:00:00,
2013-12-10 02:05:00,80.2,62.1,29.47,NNW,344,5.0,8.0,54,0.00,CLR,,0.00,WeatherDisplay:10.37,2013-12-09 15:05:00,
2013-12-10 02:10:00,79.9,62.3,29.47,NNW,331,3.0,8.0,55,0.00,CLR,,0.00,WeatherDisplay:10.37,2013-12-09 15:10:00,
2013-12-10 02:15:00,79.9,62.3,29.47,NNW,348,2.0,13.0,55,0.00,CLR,,0.00,WeatherDisplay:10.37,2013-12-09 15:15:00,
2013-12-10 02:20:00,79.9,62.3,29.47,North,350,2.0,10.0,55,0.00,CLR,,0.00,WeatherDisplay:10.37,2013-12-09 15:20:00,
2013-12-10 02:25:00,79.8,62.2,29.47,NNW,335,2.0,9.0,55,0.00,CLR,,0.00,WeatherDisplay:10.37,2013-12-09 15:25:00,
2013-12-10 02:30:00,79.7,62.1,29.47,NNW,331,3.0,6.0,55,0.00,CLR,,0.00,WeatherDisplay:10.37,2013-12-09 15:30:00,
2013-12-10 02:35:00,79.5,61.9,29.47,NNW,330,2.0,6.0,55,0.00,CLR,,0.00,WeatherDisplay:10.37,2013-12-09 15:35:00,
2013-12-10 02:40:00,79.5,62.4,29.46,NNW,340,2.0,6.0,56,0.00,CLR,,0.00,WeatherDisplay:10.37,2013-12-09 15:40:00,
2013-12-10 02:45:00,79.5,62.4,29.46,NNW,330,1.0,8.0,56,0.00,CLR,,0.00,WeatherDisplay:10.37,2013-12-09 15:45:00,
2013-12-10 02:50:00,79.3,62.3,29.46,NW,315,1.0,4.0,56,0.00,CLR,,0.00,WeatherDisplay:10.37,2013-12-09 15:50:00,
2013-12-10 02:55:00,79.3,61.8,29.46,NW,318,2.0,5.0,55,0.00,CLR,,0.00,WeatherDisplay:10.37,2013-12-09 15:55:00,
2013-12-10 03:00:00,79.3,61.8,29.46,North,351,0.0,3.0,55,0.00,CLR,,0.00,WeatherDisplay:10.37,2013-12-09 16:00:00,
2013-12-10 03:05:00,79.3,61.8,29.45,North,350,1.0,5.0,55,0.00,CLR,,0.00,WeatherDisplay:10.37,2013-12-09 16:05:00,
2013-12-10 03:10:00,79.2,62.1,29.45,NNW,347,0.0,2.0,56,0.00,CLR,,0.00,WeatherDisplay:10.37,2013-12-09 16:10:00,
2013-12-10 03:15:00,79.1,62.0,29.45,NNW,348,0.0,2.0,56,0.00,CLR,,0.00,WeatherDisplay:10.37,2013-12-09 16:15:00,
2013-12-10 03:20:00,79.0,61.9,29.45,NNW,346,0.0,2.0,56,0.00,CLR,,0.00,WeatherDisplay:10.37,2013-12-09 16:20:00,
2013-12-10 03:25:00,79.0,61.9,29.45,NNW,346,1.0,5.0,56,0.00,CLR,,0.00,WeatherDisplay:10.37,2013-12-09 16:25:00,
2013-12-10 03:31:00,79.0,61.4,29.46,NNW,330,0.0,3.0,55,0.00,CLR,,0.00,WeatherDisplay:10.37,2013-12-09 16:31:00,
2013-12-10 03:35:00,79.0,61.4,29.46,NW,325,0.0,4.0,55,0.00,CLR,,0.00,WeatherDisplay:10.37,2013-12-09 16:35:00,
2013-12-10 03:40:00,78.8,61.3,29.46,NNW,336,1.0,5.0,55,0.00,CLR,,0.00,WeatherDisplay:10.37,2013-12-09 16:40:00,
2013-12-10 03:50:00,78.8,61.3,29.46,North,349,0.0,2.0,55,0.00,CLR,,0.00,WeatherDisplay:10.37,2013-12-09 16:50:00,
2013-12-10 03:55:00,78.6,61.1,29.46,NNW,336,0.0,3.0,55,0.00,CLR,,0.00,WeatherDisplay:10.37,2013-12-09 16:55:00,
2013-12-10 04:00:00,78.8,61.3,29.46,NNW,348,1.0,6.0,55,0.00,CLR,,0.00,WeatherDisplay:10.37,2013-12-09 17:00:00,
2013-12-10 04:05:00,78.6,61.1,29.46,North,350,0.0,6.0,55,0.00,CLR,,0.00,WeatherDisplay:10.37,2013-12-09 17:05:00,
2013-12-10 04:10:00,78.6,60.6,29.46,NNW,330,0.0,2.0,54,0.00,CLR,,0.00,WeatherDisplay:10.37,2013-12-09 17:10:00,
2013-12-10 04:15:00,78.6,60.6,29.46,NNW,342,0.0,7.0,54,0.00,CLR,,0.00,WeatherDisplay:10.37,2013-12-09 17:15:00,
2013-12-10 04:20:00,78.6,60.6,29.46,North,351,1.0,4.0,54,0.00,CLR,,0.00,WeatherDisplay:10.37,2013-12-09 17:20:00,
2013-12-10 04:25:00,78.6,60.6,29.47,NNW,339,1.0,5.0,54,0.00,CLR,,0.00,WeatherDisplay:10.37,2013-12-09 17:25:00,
2013-12-10 04:30:00,78.6,60.6,29.47,NNW,347,1.0,5.0,54,0.00,CLR,,0.00,WeatherDisplay:10.37,2013-12-09 17:30:00,
2013-12-10 04:35:00,78.4,60.4,29.46,North,5,1.0,4.0,54,0.00,CLR,,0.00,WeatherDisplay:10.37,2013-12-09 17:35:00,
2013-12-10 04:40:00,78.4,60.4,29.47,NNW,344,2.0,6.0,54,0.00,CLR,,0.00,WeatherDisplay:10.37,2013-12-09 17:40:00,
2013-12-10 04:45:00,78.4,60.4,29.46,NNW,332,1.0,6.0,54,0.00,CLR,,0.00,WeatherDisplay:10.37,2013-12-09 17:45:00,
2013-12-10 04:50:00,78.4,60.4,29.47,NNW,347,1.0,4.0,54,0.00,CLR,,0.00,WeatherDisplay:10.37,2013-12-09 17:50:00,
2013-12-10 04:55:00,78.2,60.2,29.47,North,354,1.0,3.0,54,0.00,CLR,,0.00,WeatherDisplay:10.37,2013-12-09 17:55:00,
2013-12-10 05:00:00,78.1,60.1,29.47,NNW,344,2.0,7.0,54,0.00,CLR,,0.00,WeatherDisplay:10.37,2013-12-09 18:00:00,
2013-12-10 05:05:00,78.1,60.1,29.47,NNW,348,1.0,6.0,54,0.00,CLR,,0.00,WeatherDisplay:10.37,2013-12-09 18:05:00,
2013-12-10 05:10:00,78.1,60.1,29.47,North,359,1.0,4.0,54,0.00,CLR,,0.00,WeatherDisplay:10.37,2013-12-09 18:10:00,
2013-12-10 05:15:00,78.1,60.1,29.47,North,352,0.0,4.0,54,0.00,CLR,,0.00,WeatherDisplay:10.37,2013-12-09 18:15:00,
2013-12-10 05:20:00,78.1,60.1,29.47,North,350,1.0,3.0,54,0.00,CLR,,0.00,WeatherDisplay:10.37,2013-12-09 18:20:00,
2013-12-10 05:25:00,78.0,60.0,29.48,NNW,347,1.0,5.0,54,0.00,CLR,,0.00,WeatherDisplay:10.37,2013-12-09 18:25:00,
2013-12-10 05:30:00,77.9,59.9,29.47,North,358,0.0,4.0,54,0.00,CLR,,0.00,WeatherDisplay:10.37,2013-12-09 18:30:00,
2013-12-10 05:35:00,77.9,59.9,29.47,North,359,1.0,3.0,54,0.00,CLR,,0.00,WeatherDisplay:10.37,2013-12-09 18:35:00,
2013-12-10 05:40:00,77.9,59.9,29.47,North,349,1.0,2.0,54,0.00,CLR,,0.00,WeatherDisplay:10.37,2013-12-09 18:40:00,
2013-12-10 05:45:00,77.7,59.7,29.48,North,1,0.0,5.0,54,0.00,CLR,,0.00,WeatherDisplay:10.37,2013-12-09 18:45:00,
2013-12-10 05:50:00,77.7,59.8,29.48,North,9,0.0,1.0,54,0.00,CLR,,0.00,WeatherDisplay:10.37,2013-12-09 18:50:00,
2013-12-10 05:55:00,77.7,59.7,29.48,North,2,0.0,4.0,54,0.00,CLR,,0.00,WeatherDisplay:10.37,2013-12-09 18:55:00,
2013-12-10 06:00:00,77.5,59.6,29.49,NNW,348,1.0,3.0,54,0.00,CLR,,0.00,WeatherDisplay:10.37,2013-12-09 19:00:00,
2013-12-10 06:05:00,77.6,59.6,29.49,North,355,1.0,3.0,54,0.00,CLR,,0.00,WeatherDisplay:10.37,2013-12-09 19:05:00,
2013-12-10 06:10:00,77.6,59.6,29.49,North,355,0.0,2.0,54,0.00,CLR,,0.00,WeatherDisplay:10.37,2013-12-09 19:10:00,
2013-12-10 06:15:00,77.5,59.6,29.49,North,355,1.0,4.0,54,0.00,CLR,,0.00,WeatherDisplay:10.37,2013-12-09 19:15:00,
2013-12-10 06:20:00,77.5,60.1,29.49,NNW,344,0.0,2.0,55,0.00,CLR,,0.00,WeatherDisplay:10.37,2013-12-09 19:20:00,
2013-12-10 06:25:00,77.5,60.1,29.49,NNW,344,0.0,3.0,55,0.00,CLR,,0.00,WeatherDisplay:10.37,2013-12-09 19:25:00,
2013-12-10 06:30:00,77.5,60.1,29.49,North,0,0.0,2.0,55,0.00,CLR,,0.00,WeatherDisplay:10.37,2013-12-09 19:30:00,
2013-12-10 06:35:00,77.5,60.1,29.50,North,353,0.0,3.0,55,0.00,CLR,,0.00,WeatherDisplay:10.37,2013-12-09 19:35:00,
2013-12-10 06:40:00,77.5,60.1,29.50,NNW,335,0.0,4.0,55,0.00,CLR,,0.00,WeatherDisplay:10.37,2013-12-09 19:40:00,
2013-12-10 06:45:00,77.7,60.2,29.50,NW,317,0.0,2.0,55,0.00,CLR,,0.00,WeatherDisplay:10.37,2013-12-09 19:45:00,
2013-12-10 06:50:00,77.7,60.3,29.50,NW,324,0.0,2.0,55,0.00,CLR,,0.00,WeatherDisplay:10.37,2013-12-09 19:50:00,
2013-12-10 06:55:00,77.7,60.3,29.50,NNW,347,1.0,6.0,55,0.00,CLR,,0.00,WeatherDisplay:10.37,2013-12-09 19:55:00,
2013-12-10 07:00:00,77.7,60.3,29.51,NW,322,1.0,6.0,55,0.00,CLR,,0.00,WeatherDisplay:10.37,2013-12-09 20:00:00,
2013-12-10 07:05:00,77.9,60.4,29.51,WNW,282,1.0,6.0,55,0.00,CLR,,0.00,WeatherDisplay:10.37,2013-12-09 20:05:00,
2013-12-10 07:10:00,77.9,60.4,29.51,West,280,0.0,3.0,55,0.00,CLR,,0.00,WeatherDisplay:10.37,2013-12-09 20:10:00,
2013-12-10 07:15:00,78.0,60.5,29.51,West,261,0.0,3.0,55,0.00,CLR,,0.00,WeatherDisplay:10.37,2013-12-09 20:15:00,
2013-12-10 07:20:00,78.1,60.6,29.51,WNW,291,1.0,2.0,55,0.00,CLR,,0.00,WeatherDisplay:10.37,2013-12-09 20:20:00,
2013-12-10 07:25:00,78.1,60.6,29.51,NW,324,0.0,2.0,55,0.00,CLR,,0.00,WeatherDisplay:10.37,2013-12-09 20:25:00,
2013-12-10 07:30:00,78.4,60.9,29.51,NW,321,0.0,2.0,55,0.00,CLR,,0.00,WeatherDisplay:10.37,2013-12-09 20:30:00,
2013-12-10 07:35:00,78.4,60.9,29.51,NNW,337,0.0,2.0,55,0.00,CLR,,0.00,WeatherDisplay:10.37,2013-12-09 20:35:00,
2013-12-10 07:40:00,78.4,60.9,29.51,North,5,1.0,5.0,55,0.00,CLR,,0.00,WeatherDisplay:10.37,2013-12-09 20:40:00,
2013-12-10 07:45:00,78.4,60.9,29.51,NNW,340,0.0,4.0,55,0.00,CLR,,0.00,WeatherDisplay:10.37,2013-12-09 20:45:00,
2013-12-10 07:50:00,78.6,61.1,29.51,NNW,337,0.0,2.0,55,0.00,CLR,,0.00,WeatherDisplay:10.37,2013-12-09 20:50:00,
2013-12-10 07:55:00,78.7,61.2,29.51,NNW,345,0.0,3.0,55,0.00,CLR,,0.00,WeatherDisplay:10.37,2013-12-09 20:55:00,
2013-12-10 08:00:00,79.2,61.6,29.51,NNW,348,1.0,3.0,55,0.00,CLR,,0.00,WeatherDisplay:10.37,2013-12-09 21:00:00,
2013-12-10 08:05:00,79.5,61.4,29.52,NNW,348,1.0,3.0,54,0.00,CLR,,0.00,WeatherDisplay:10.37,2013-12-09 21:05:00,
2013-12-10 08:10:00,79.8,61.6,29.52,NNW,347,0.0,4.0,54,0.00,CLR,,0.00,WeatherDisplay:10.37,2013-12-09 21:10:00,
2013-12-10 08:15:00,79.9,61.7,29.51,NNW,344,1.0,6.0,54,0.00,CLR,,0.00,WeatherDisplay:10.37,2013-12-09 21:15:00,
2013-12-10 08:20:00,80.2,62.1,29.51,NNW,343,1.0,5.0,54,0.00,CLR,,0.00,WeatherDisplay:10.37,2013-12-09 21:20:00,
2013-12-10 08:25:00,80.4,61.7,29.52,NNW,346,1.0,6.0,53,0.00,CLR,,0.00,WeatherDisplay:10.37,2013-12-09 21:25:00,
2013-12-10 08:30:00,80.8,62.1,29.51,NNW,339,3.0,7.0,53,0.00,CLR,,0.00,WeatherDisplay:10.37,2013-12-09 21:30:00,
2013-12-10 08:35:00,80.8,62.1,29.51,North,351,2.0,6.0,53,0.00,CLR,,0.00,WeatherDisplay:10.37,2013-12-09 21:35:00,
2013-12-10 08:40:00,81.1,61.8,29.51,North,9,3.0,7.0,52,0.00,CLR,,0.00,WeatherDisplay:10.37,2013-12-09 21:40:00,
2013-12-10 08:45:00,81.3,62.0,29.51,North,4,2.0,7.0,52,0.00,CLR,,0.00,WeatherDisplay:10.37,2013-12-09 21:45:00,
2013-12-10 08:50:00,81.5,62.2,29.51,NNW,336,2.0,6.0,52,0.00,CLR,,0.00,WeatherDisplay:10.37,2013-12-09 21:50:00,
2013-12-10 08:55:00,82.0,62.7,29.51,NNW,333,2.0,6.0,52,0.00,CLR,,0.00,WeatherDisplay:10.37,2013-12-09 21:55:00,
2013-12-10 09:00:00,82.6,62.6,29.51,NNW,343,1.0,6.0,51,0.00,CLR,,0.00,WeatherDisplay:10.37,2013-12-09 22:00:00,
2013-12-10 09:05:00,83.3,62.7,29.51,NW,325,1.0,3.0,50,0.00,CLR,,0.00,WeatherDisplay:10.37,2013-12-09 22:05:00,
2013-12-10 09:10:00,83.5,62.9,29.50,NW,313,0.0,8.0,50,0.00,CLR,,0.00,WeatherDisplay:10.37,2013-12-09 22:10:00,
2013-12-10 09:15:00,83.3,62.1,29.50,NNW,334,2.0,7.0,49,0.00,CLR,,0.00,WeatherDisplay:10.37,2013-12-09 22:15:00,
2013-12-10 09:20:00,83.2,62.7,29.50,North,353,1.0,4.0,50,0.00,CLR,,0.00,WeatherDisplay:10.37,2013-12-09 22:20:00,
2013-12-10 09:25:00,83.8,63.2,29.50,NNW,341,1.0,4.0,50,0.00,CLR,,0.00,WeatherDisplay:10.37,2013-12-09 22:25:00,
2013-12-10 09:30:00,84.3,63.6,29.50,NW,325,1.0,3.0,50,0.00,CLR,,0.00,WeatherDisplay:10.37,2013-12-09 22:30:00,
2013-12-10 09:35:00,85.1,63.8,29.49,NNW,329,2.0,6.0,49,0.00,CLR,,0.00,WeatherDisplay:10.37,2013-12-09 22:35:00,
2013-12-10 09:40:00,85.8,63.9,29.49,NNW,335,5.0,10.0,48,0.00,CLR,,0.00,WeatherDisplay:10.37,2013-12-09 22:40:00,
2013-12-10 09:45:00,86.5,63.9,29.49,North,350,1.0,6.0,47,0.00,CLR,,0.00,WeatherDisplay:10.37,2013-12-09 22:45:00,
2013-12-10 09:50:00,87.1,63.1,29.49,North,350,1.0,8.0,45,0.00,CLR,,0.00,WeatherDisplay:10.37,2013-12-09 22:50:00,
2013-12-10 09:55:00,87.6,64.3,29.49,NNW,336,2.0,5.0,46,0.00,CLR,,0.00,WeatherDisplay:10.37,2013-12-09 22:55:00,
2013-12-10 10:00:00,88.1,63.4,29.49,NW,324,2.0,5.0,44,0.00,CLR,,0.00,WeatherDisplay:10.37,2013-12-09 23:00:00,
2013-12-10 10:05:00,88.5,63.8,29.48,WNW,303,1.0,6.0,44,0.00,CLR,,0.00,WeatherDisplay:10.37,2013-12-09 23:05:00,
2013-12-10 10:10:00,89.0,63.6,29.48,NW,307,1.0,6.0,43,0.00,CLR,,0.00,WeatherDisplay:10.37,2013-12-09 23:10:00,
2013-12-10 10:15:00,89.5,64.0,29.48,North,352,2.0,4.0,43,0.00,CLR,,0.00,WeatherDisplay:10.37,2013-12-09 23:15:00,
2013-12-10 10:20:00,90.0,63.8,29.48,North,351,2.0,5.0,42,0.00,CLR,,0.00,WeatherDisplay:10.37,2013-12-09 23:20:00,
2013-12-10 10:25:00,90.1,63.3,29.48,NW,326,2.0,5.0,41,0.00,CLR,,0.00,WeatherDisplay:10.37,2013-12-09 23:25:00,
2013-12-10 10:30:00,90.5,63.6,29.48,NW,317,2.0,6.0,41,0.00,CLR,,0.00,WeatherDisplay:10.37,2013-12-09 23:30:00,
2013-12-10 10:35:00,91.0,64.0,29.48,NW,316,3.0,6.0,41,0.00,CLR,,0.00,WeatherDisplay:10.37,2013-12-09 23:35:00,
2013-12-10 10:40:00,91.1,63.4,29.48,NNW,334,5.0,12.0,40,0.00,CLR,,0.00,WeatherDisplay:10.37,2013-12-09 23:40:00,
2013-12-10 10:45:00,91.2,62.8,29.47,North,350,3.0,8.0,39,0.00,CLR,,0.00,WeatherDisplay:10.37,2013-12-09 23:45:00,
2013-12-10 10:50:00,91.6,63.1,29.47,North,351,3.0,8.0,39,0.00,CLR,,0.00,WeatherDisplay:10.37,2013-12-09 23:50:00,
2013-12-10 10:55:00,91.8,63.3,29.47,NNW,348,5.0,8.0,39,0.00,CLR,,0.00,WeatherDisplay:10.37,2013-12-09 23:55:00,
2013-12-10 11:00:00,91.9,62.7,29.47,NNW,336,2.0,12.0,38,0.00,CLR,,0.00,WeatherDisplay:10.37,2013-12-10 00:00:00,
2013-12-10 11:05:00,92.1,62.9,29.48,NW,324,2.0,8.0,38,0.00,CLR,,0.00,WeatherDisplay:10.37,2013-12-10 00:05:00,
2013-12-10 11:10:00,92.6,63.3,29.48,NW,316,3.0,8.0,38,0.00,CLR,,0.00,WeatherDisplay:10.37,2013-12-10 00:10:00,
2013-12-10 11:15:00,93.0,62.9,29.47,NW,322,3.0,8.0,37,0.00,CLR,,0.00,WeatherDisplay:10.37,2013-12-10 00:15:00,
2013-12-10 11:20:00,93.0,62.1,29.47,North,349,3.0,10.0,36,0.00,CLR,,0.00,WeatherDisplay:10.37,2013-12-10 00:20:00,
2013-12-10 11:25:00,93.3,62.3,29.47,North,7,5.0,7.0,36,0.00,CLR,,0.00,WeatherDisplay:10.37,2013-12-10 00:25:00,
2013-12-10 11:30:00,93.4,61.6,29.47,NNW,339,3.0,12.0,35,0.00,CLR,,0.00,WeatherDisplay:10.37,2013-12-10 00:30:00,
2013-12-10 11:35:00,93.7,62.0,29.47,NNW,328,3.0,11.0,35,0.00,CLR,,0.00,WeatherDisplay:10.37,2013-12-10 00:35:00,
2013-12-10 11:40:00,93.9,62.1,29.47,NNW,346,5.0,7.0,35,0.00,CLR,,0.00,WeatherDisplay:10.37,2013-12-10 00:40:00,
2013-12-10 11:45:00,94.3,61.7,29.47,NNW,338,3.0,7.0,34,0.00,CLR,,0.00,WeatherDisplay:10.37,2013-12-10 00:45:00,
2013-12-10 11:50:00,94.8,62.1,29.46,WNW,303,5.0,7.0,34,0.00,CLR,,0.00,WeatherDisplay:10.37,2013-12-10 00:50:00,
2013-12-10 11:55:00,95.4,62.6,29.46,WNW,299,3.0,7.0,34,0.00,CLR,,0.00,WeatherDisplay:10.37,2013-12-10 00:55:00,
2013-12-10 12:00:00,95.9,62.1,29.46,NNW,334,3.0,12.0,33,0.00,CLR,,0.00,WeatherDisplay:10.37,2013-12-10 01:00:00,
2013-12-10 12:05:00,95.9,62.2,29.46,NNW,341,5.0,7.0,33,0.00,CLR,,0.00,WeatherDisplay:10.37,2013-12-10 01:05:00,
2013-12-10 12:10:00,95.9,62.2,29.46,North,7,5.0,17.0,33,0.00,CLR,,0.00,WeatherDisplay:10.37,2013-12-10 01:10:00,
2013-12-10 12:20:00,95.7,62.0,29.45,North,353,5.0,18.0,33,0.00,CLR,,0.00,WeatherDisplay:10.37,2013-12-10 01:20:00,
2013-12-10 12:25:00,95.6,61.0,29.45,North,355,2.0,10.0,32,0.00,CLR,,0.00,WeatherDisplay:10.37,2013-12-10 01:25:00,
2013-12-10 12:30:00,95.2,60.7,29.45,NNW,346,3.0,7.0,32,0.00,CLR,,0.00,WeatherDisplay:10.37,2013-12-10 01:30:00,
2013-12-10 12:35:00,95.4,61.8,29.45,NW,321,5.0,8.0,33,0.00,CLR,,0.00,WeatherDisplay:10.37,2013-12-10 01:35:00,
2013-12-10 12:40:00,95.9,62.2,29.45,NW,323,6.0,8.0,33,0.00,CLR,,0.00,WeatherDisplay:10.37,2013-12-10 01:40:00,
2013-12-10 12:45:00,95.7,61.1,29.44,North,4,5.0,11.0,32,0.00,CLR,,0.00,WeatherDisplay:10.37,2013-12-10 01:45:00,
2013-12-10 12:50:00,95.5,61.0,29.44,North,9,7.0,14.0,32,0.00,CLR,,0.00,WeatherDisplay:10.37,2013-12-10 01:50:00,
2013-12-10 12:55:00,95.2,60.7,29.45,NNW,344,5.0,9.0,32,0.00,CLR,,0.00,WeatherDisplay:10.37,2013-12-10 01:55:00,
2013-12-10 13:00:00,95.1,60.6,29.45,NNW,328,3.0,9.0,32,0.00,CLR,,0.00,WeatherDisplay:10.37,2013-12-10 02:00:00,
2013-12-10 13:05:00,94.9,60.5,29.45,NNW,329,3.0,9.0,32,0.00,CLR,,0.00,WeatherDisplay:10.37,2013-12-10 02:05:00,
2013-12-10 13:10:00,94.8,60.4,29.45,NNW,344,3.0,7.0,32,0.00,CLR,,0.00,WeatherDisplay:10.37,2013-12-10 02:10:00,
2013-12-10 13:15:00,94.6,60.2,29.44,NNW,343,5.0,11.0,32,0.00,CLR,,0.00,WeatherDisplay:10.37,2013-12-10 02:15:00,
2013-12-10 13:20:00,94.6,61.1,29.44,NW,325,2.0,7.0,33,0.00,CLR,,0.00,WeatherDisplay:10.37,2013-12-10 02:20:00,
2013-12-10 13:25:00,95.0,60.5,29.44,NW,305,2.0,9.0,32,0.00,CLR,,0.00,WeatherDisplay:10.37,2013-12-10 02:25:00,
2013-12-10 13:30:00,94.8,60.4,29.44,NW,308,3.0,7.0,32,0.00,CLR,,0.00,WeatherDisplay:10.37,2013-12-10 02:30:00,
2013-12-10 13:35:00,94.6,61.0,29.44,NNW,336,3.0,6.0,33,0.00,CLR,,0.00,WeatherDisplay:10.37,2013-12-10 02:35:00,
2013-12-10 13:40:00,93.9,60.4,29.44,NNW,338,0.0,5.0,33,0.00,CLR,,0.00,WeatherDisplay:10.37,2013-12-10 02:40:00,
2013-12-10 13:50:00,93.9,60.4,29.44,West,265,2.0,6.0,33,0.00,CLR,,0.00,WeatherDisplay:10.37,2013-12-10 02:50:00,
2013-12-10 13:55:00,94.1,60.6,29.44,WNW,297,3.0,6.0,33,0.00,CLR,,0.00,WeatherDisplay:10.37,2013-12-10 02:55:00,
2013-12-10 14:00:00,94.3,60.8,29.44,NNW,331,1.0,5.0,33,0.00,CLR,,0.00,WeatherDisplay:10.37,2013-12-10 03:00:00,
2013-12-10 14:05:00,94.9,61.3,29.44,NW,323,5.0,8.0,33,0.00,CLR,,0.00,WeatherDisplay:10.37,2013-12-10 03:05:00,
2013-12-10 14:10:00,95.2,60.7,29.43,NW,322,1.0,8.0,32,0.00,CLR,,0.00,WeatherDisplay:10.37,2013-12-10 03:10:00,
2013-12-10 14:15:00,94.8,59.5,29.43,NW,311,1.0,6.0,31,0.00,CLR,,0.00,WeatherDisplay:10.37,2013-12-10 03:15:00,
2013-12-10 14:20:00,94.8,59.5,29.43,West,272,5.0,12.0,31,0.00,CLR,,0.00,WeatherDisplay:10.37,2013-12-10 03:20:00,
2013-12-10 14:25:00,94.8,59.5,29.43,West,273,1.0,12.0,31,0.00,CLR,,0.00,WeatherDisplay:10.37,2013-12-10 03:25:00,
2013-12-10 14:30:00,95.5,60.1,29.43,West,276,3.0,6.0,31,0.00,CLR,,0.00,WeatherDisplay:10.37,2013-12-10 03:30:00,
2013-12-10 14:35:00,95.4,59.0,29.43,West,273,3.0,7.0,30,0.00,CLR,,0.00,WeatherDisplay:10.37,2013-12-10 03:35:00,
2013-12-10 14:40:00,94.9,59.6,29.43,West,265,5.0,8.0,31,0.00,CLR,,0.00,WeatherDisplay:10.37,2013-12-10 03:40:00,
2013-12-10 14:45:00,94.9,60.4,29.43,WSW,245,2.0,8.0,32,0.00,CLR,,0.00,WeatherDisplay:10.37,2013-12-10 03:45:00,
2013-12-10 14:50:00,94.9,60.4,29.43,WSW,237,1.0,7.0,32,0.00,CLR,,0.00,WeatherDisplay:10.37,2013-12-10 03:50:00,
2013-12-10 14:55:00,95.2,59.8,29.43,SW,231,2.0,10.0,31,0.00,CLR,,0.00,WeatherDisplay:10.37,2013-12-10 03:55:00,
2013-12-10 15:00:00,95.5,60.1,29.43,WSW,238,1.0,5.0,31,0.00,CLR,,0.00,WeatherDisplay:10.37,2013-12-10 04:00:00,
2013-12-10 15:05:00,95.5,60.1,29.43,WSW,241,5.0,8.0,31,0.00,CLR,,0.00,WeatherDisplay:10.37,2013-12-10 04:05:00,
2013-12-10 15:10:00,95.4,59.0,29.43,WSW,237,5.0,14.0,30,0.00,CLR,,0.00,WeatherDisplay:10.37,2013-12-10 04:10:00,
2013-12-10 15:15:00,95.4,59.0,29.43,WSW,255,5.0,8.0,30,0.00,CLR,,0.00,WeatherDisplay:10.37,2013-12-10 04:15:00,
2013-12-10 15:20:00,95.2,57.9,29.43,West,270,3.0,8.0,29,0.00,CLR,,0.00,WeatherDisplay:10.37,2013-12-10 04:20:00,
2013-12-10 15:25:00,95.2,57.9,29.43,WSW,248,1.0,10.0,29,0.00,CLR,,0.00,WeatherDisplay:10.37,2013-12-10 04:25:00,
2013-12-10 15:30:00,94.7,61.2,29.43,SW,227,2.0,7.0,33,0.00,CLR,,0.00,WeatherDisplay:10.37,2013-12-10 04:30:00,
2013-12-10 15:35:00,94.0,64.5,29.44,SW,220,3.0,7.0,38,0.00,CLR,,0.00,WeatherDisplay:10.37,2013-12-10 04:35:00,
2013-12-10 15:40:00,93.7,67.1,29.43,SSW,204,2.0,7.0,42,0.00,CLR,,0.00,WeatherDisplay:10.37,2013-12-10 04:40:00,
2013-12-10 15:45:00,93.6,66.3,29.43,SSW,201,5.0,7.0,41,0.00,CLR,,0.00,WeatherDisplay:10.37,2013-12-10 04:45:00,
2013-12-10 15:50:00,93.4,65.5,29.42,SSW,200,3.0,10.0,40,0.00,CLR,,0.00,WeatherDisplay:10.37,2013-12-10 04:50:00,
2013-12-10 15:55:00,93.7,65.7,29.43,SSW,203,3.0,9.0,40,0.00,CLR,,0.00,WeatherDisplay:10.37,2013-12-10 04:55:00,
2013-12-10 16:00:00,93.8,65.1,29.43,SW,216,2.0,9.0,39,0.00,CLR,,0.00,WeatherDisplay:10.37,2013-12-10 05:00:00,
2013-12-10 16:05:00,93.7,64.3,29.43,SSW,209,3.0,8.0,38,0.00,CLR,,0.00,WeatherDisplay:10.37,2013-12-10 05:05:00,
2013-12-10 16:10:00,93.4,62.4,29.43,SSW,204,5.0,9.0,36,0.00,CLR,,0.00,WeatherDisplay:10.37,2013-12-10 05:10:00,
2013-12-10 16:15:00,93.0,62.9,29.44,SSW,209,5.0,10.0,37,0.00,CLR,,0.00,WeatherDisplay:10.37,2013-12-10 05:15:00,
2013-12-10 16:20:00,92.8,62.7,29.44,SSW,211,3.0,12.0,37,0.00,CLR,,0.00,WeatherDisplay:10.37,2013-12-10 05:20:00,
2013-12-10 16:25:00,92.4,61.6,29.44,SSW,201,3.0,10.0,36,0.00,CLR,,0.00,WeatherDisplay:10.37,2013-12-10 05:25:00,
2013-12-10 16:30:00,91.9,61.9,29.43,SSW,204,1.0,5.0,37,0.00,CLR,,0.00,WeatherDisplay:10.37,2013-12-10 05:30:00,
2013-12-10 16:35:00,91.6,61.6,29.44,WSW,253,7.0,14.0,37,0.00,CLR,,0.00,WeatherDisplay:10.37,2013-12-10 05:35:00,
2013-12-10 16:40:00,91.2,61.3,29.44,SW,217,5.0,11.0,37,0.00,CLR,,0.00,WeatherDisplay:10.37,2013-12-10 05:40:00,
2013-12-10 16:45:00,91.0,61.1,29.44,SSW,196,1.0,9.0,37,0.00,CLR,,0.00,WeatherDisplay:10.37,2013-12-10 05:45:00,
2013-12-10 16:50:00,90.7,60.8,29.44,SSW,198,2.0,9.0,37,0.00,CLR,,0.00,WeatherDisplay:10.37,2013-12-10 05:50:00,
2013-12-10 16:55:00,90.7,60.8,29.44,SW,231,2.0,11.0,37,0.00,CLR,,0.00,WeatherDisplay:10.37,2013-12-10 05:55:00,
2013-12-10 17:00:00,90.7,60.8,29.44,SW,234,3.0,7.0,37,0.00,CLR,,0.00,WeatherDisplay:10.37,2013-12-10 06:00:00,
2013-12-10 17:05:00,90.5,60.7,29.44,SW,214,1.0,4.0,37,0.00,CLR,,0.00,WeatherDisplay:10.37,2013-12-10 06:05:00,
2013-12-10 17:10:00,90.6,61.5,29.45,SSW,196,1.0,6.0,38,0.00,CLR,,0.00,WeatherDisplay:10.37,2013-12-10 06:10:00,
2013-12-10 17:15:00,90.5,60.7,29.45,South,191,2.0,8.0,37,0.00,CLR,,0.00,WeatherDisplay:10.37,2013-12-10 06:15:00,
2013-12-10 17:20:00,90.4,60.6,29.45,SSW,194,1.0,6.0,37,0.00,CLR,,0.00,WeatherDisplay:10.37,2013-12-10 06:20:00,
2013-12-10 17:25:00,90.3,60.5,29.46,SSW,199,3.0,7.0,37,0.00,CLR,,0.00,WeatherDisplay:10.37,2013-12-10 06:25:00,
2013-12-10 17:30:00,90.3,60.5,29.45,SSW,202,1.0,7.0,37,0.00,CLR,,0.00,WeatherDisplay:10.37,2013-12-10 06:30:00,
2013-12-10 17:36:00,90.3,60.5,29.45,WSW,239,3.0,8.0,37,0.00,CLR,,0.00,WeatherDisplay:10.37,2013-12-10 06:36:00,
2013-12-10 17:40:00,90.3,60.5,29.46,SW,232,3.0,9.0,37,0.00,CLR,,0.00,WeatherDisplay:10.37,2013-12-10 06:40:00,
2013-12-10 17:45:00,90.3,60.5,29.47,SW,228,1.0,9.0,37,0.00,CLR,,0.00,WeatherDisplay:10.37,2013-12-10 06:45:00,
2013-12-10 17:50:00,90.1,60.4,29.47,SSW,205,2.0,4.0,37,0.00,CLR,,0.00,WeatherDisplay:10.37,2013-12-10 06:50:00,
2013-12-10 17:55:00,90.0,61.7,29.47,South,170,2.0,5.0,39,0.00,CLR,,0.00,WeatherDisplay:10.37,2013-12-10 06:55:00,
2013-12-10 18:00:00,89.8,61.5,29.47,NE,46,2.0,4.0,39,0.00,CLR,,0.00,WeatherDisplay:10.37,2013-12-10 07:00:00,
2013-12-10 18:05:00,89.7,61.4,29.47,South,189,3.0,6.0,39,0.00,CLR,,0.00,WeatherDisplay:10.37,2013-12-10 07:05:00,
2013-12-10 18:10:00,89.5,61.3,29.47,SSW,211,1.0,7.0,39,0.00,CLR,,0.00,WeatherDisplay:10.37,2013-12-10 07:10:00,
2013-12-10 18:15:00,89.4,61.2,29.48,SSW,204,3.0,7.0,39,0.00,CLR,,0.00,WeatherDisplay:10.37,2013-12-10 07:15:00,
2013-12-10 18:20:00,89.3,61.1,29.48,SSW,205,1.0,6.0,39,0.00,CLR,,0.00,WeatherDisplay:10.37,2013-12-10 07:20:00,
2013-12-10 18:25:00,89.1,60.9,29.49,South,188,1.0,7.0,39,0.00,CLR,,0.00,WeatherDisplay:10.37,2013-12-10 07:25:00,
2013-12-10 18:30:00,88.9,60.7,29.49,SSW,212,1.0,5.0,39,0.00,CLR,,0.00,WeatherDisplay:10.37,2013-12-10 07:30:00,
2013-12-10 18:35:00,88.5,59.7,29.49,South,169,1.0,9.0,38,0.00,CLR,,0.00,WeatherDisplay:10.37,2013-12-10 07:35:00,
2013-12-10 18:40:00,88.1,59.3,29.49,ESE,107,2.0,7.0,38,0.00,CLR,,0.00,WeatherDisplay:10.37,2013-12-10 07:40:00,
2013-12-10 18:45:00,87.7,58.9,29.50,SSE,167,2.0,5.0,38,0.00,CLR,,0.00,WeatherDisplay:10.37,2013-12-10 07:45:00,
2013-12-10 18:50:00,87.5,58.8,29.50,SSW,200,0.0,4.0,38,0.00,CLR,,0.00,WeatherDisplay:10.37,2013-12-10 07:50:00,
2013-12-10 18:55:00,87.3,58.6,29.50,SSW,206,1.0,5.0,38,0.00,CLR,,0.00,WeatherDisplay:10.37,2013-12-10 07:55:00,
2013-12-10 19:00:00,87.1,59.1,29.50,SSW,195,0.0,4.0,39,0.00,CLR,,0.00,WeatherDisplay:10.37,2013-12-10 08:00:00,
2013-12-10 19:05:00,86.9,59.0,29.51,South,188,2.0,5.0,39,0.00,CLR,,0.00,WeatherDisplay:10.37,2013-12-10 08:05:00,
2013-12-10 19:10:00,86.6,58.7,29.51,SSW,200,2.0,4.0,39,0.00,CLR,,0.00,WeatherDisplay:10.37,2013-12-10 08:10:00,
2013-12-10 19:15:00,86.5,58.6,29.51,SSW,208,3.0,6.0,39,0.00,CLR,,0.00,WeatherDisplay:10.37,2013-12-10 08:15:00,
2013-12-10 19:20:00,86.2,58.3,29.51,SSW,208,2.0,3.0,39,0.00,CLR,,0.00,WeatherDisplay:10.37,2013-12-10 08:20:00,
2013-12-10 19:25:00,85.9,59.4,29.52,SSW,208,2.0,5.0,41,0.00,CLR,,0.00,WeatherDisplay:10.37,2013-12-10 08:25:00,
2013-12-10 19:30:00,85.8,59.4,29.52,SSW,203,2.0,6.0,41,0.00,CLR,,0.00,WeatherDisplay:10.37,2013-12-10 08:30:00,
2013-12-10 19:35:00,85.6,59.9,29.52,SSW,201,2.0,5.0,42,0.00,CLR,,0.00,WeatherDisplay:10.37,2013-12-10 08:35:00,
2013-12-10 19:40:00,85.3,59.6,29.52,SSW,204,0.0,4.0,42,0.00,CLR,,0.00,WeatherDisplay:10.37,2013-12-10 08:40:00,
2013-12-10 19:45:00,84.9,59.9,29.53,SW,218,1.0,3.0,43,0.00,CLR,,0.00,WeatherDisplay:10.37,2013-12-10 08:45:00,
2013-12-10 19:50:00,84.7,60.4,29.53,SW,223,2.0,3.0,44,0.00,CLR,,0.00,WeatherDisplay:10.37,2013-12-10 08:50:00,
2013-12-10 19:55:00,84.6,60.9,29.54,SSW,212,3.0,4.0,45,0.00,CLR,,0.00,WeatherDisplay:10.37,2013-12-10 08:55:00,
2013-12-10 20:00:00,84.4,60.7,29.54,SW,228,1.0,4.0,45,0.00,CLR,,0.00,WeatherDisplay:10.37,2013-12-10 09:00:00,
2013-12-10 20:05:00,84.2,61.2,29.54,SW,235,0.0,2.0,46,0.00,CLR,,0.00,WeatherDisplay:10.37,2013-12-10 09:05:00,
2013-12-10 20:10:00,84.0,61.0,29.55,SW,230,0.0,3.0,46,0.00,CLR,,0.00,WeatherDisplay:10.37,2013-12-10 09:10:00,
2013-12-10 20:15:00,84.0,61.6,29.54,SSW,205,3.0,4.0,47,0.00,CLR,,0.00,WeatherDisplay:10.37,2013-12-10 09:15:00,
2013-12-10 20:20:00,83.7,61.4,29.54,SSW,207,2.0,5.0,47,0.00,CLR,,0.00,WeatherDisplay:10.37,2013-12-10 09:20:00,
2013-12-10 20:30:00,83.1,61.4,29.55,SW,225,5.0,8.0,48,0.00,CLR,,0.00,WeatherDisplay:10.37,2013-12-10 09:30:00,
2013-12-10 20:35:00,82.9,61.2,29.55,SW,219,5.0,7.0,48,0.00,CLR,,0.00,WeatherDisplay:10.37,2013-12-10 09:35:00,
2013-12-10 20:40:00,82.9,61.2,29.55,SW,220,7.0,9.0,48,0.00,CLR,,0.00,WeatherDisplay:10.37,2013-12-10 09:40:00,
2013-12-10 20:45:00,82.8,61.6,29.56,SW,221,5.0,8.0,49,0.00,CLR,,0.00,WeatherDisplay:10.37,2013-12-10 09:45:00,
2013-12-10 20:50:00,82.6,62.1,29.55,SW,217,5.0,7.0,50,0.00,CLR,,0.00,WeatherDisplay:10.37,2013-12-10 09:50:00,
2013-12-10 20:55:00,82.6,62.6,29.56,SSW,212,6.0,7.0,51,0.00,CLR,,0.00,WeatherDisplay:10.37,2013-12-10 09:55:00,
2013-12-10 21:00:00,82.2,62.8,29.56,SSW,213,5.0,7.0,52,0.00,CLR,,0.00,WeatherDisplay:10.37,2013-12-10 10:00:00,
2013-12-10 21:05:00,82.2,63.4,29.56,SW,216,3.0,9.0,53,0.00,CLR,,0.00,WeatherDisplay:10.37,2013-12-10 10:05:00,
2013-12-10 21:10:00,82.0,63.2,29.57,SW,221,3.0,8.0,53,0.00,CLR,,0.00,WeatherDisplay:10.37,2013-12-10 10:10:00,
2013-12-10 21:15:00,81.8,63.0,29.57,SW,221,2.0,8.0,53,0.00,CLR,,0.00,WeatherDisplay:10.37,2013-12-10 10:15:00,
2013-12-10 21:20:00,81.7,63.4,29.57,SSW,211,6.0,8.0,54,0.00,CLR,,0.00,WeatherDisplay:10.37,2013-12-10 10:20:00,
2013-12-10 21:25:00,81.4,63.7,29.57,SSW,203,3.0,8.0,55,0.00,CLR,,0.00,WeatherDisplay:10.37,2013-12-10 10:25:00,
2013-12-10 21:30:00,81.3,63.6,29.57,SSW,204,3.0,6.0,55,0.00,CLR,,0.00,WeatherDisplay:10.37,2013-12-10 10:30:00,
2013-12-10 21:35:00,81.1,64.0,29.58,SSW,205,3.0,8.0,56,0.00,CLR,,0.00,WeatherDisplay:10.37,2013-12-10 10:35:00,
2013-12-10 21:40:00,80.9,64.2,29.58,SSW,201,6.0,8.0,57,0.00,CLR,,0.00,WeatherDisplay:10.37,2013-12-10 10:40:00,
2013-12-10 21:45:00,80.6,64.5,29.58,SSW,206,2.0,8.0,58,0.00,CLR,,0.00,WeatherDisplay:10.37,2013-12-10 10:45:00,
2013-12-10 21:50:00,80.4,64.3,29.59,SSW,208,0.0,5.0,58,0.00,CLR,,0.00,WeatherDisplay:10.37,2013-12-10 10:50:00,
2013-12-10 21:55:00,80.2,64.6,29.59,SSW,199,1.0,5.0,59,0.00,CLR,,0.00,WeatherDisplay:10.37,2013-12-10 10:55:00,
2013-12-10 22:00:00,79.9,64.8,29.59,SSW,193,3.0,7.0,60,0.00,CLR,,0.00,WeatherDisplay:10.37,2013-12-10 11:00:00,
2013-12-10 22:05:00,79.7,65.1,29.59,SSW,198,1.0,5.0,61,0.00,CLR,,0.00,WeatherDisplay:10.37,2013-12-10 11:05:00,
2013-12-10 22:10:00,79.5,64.9,29.60,SSW,212,1.0,3.0,61,0.00,CLR,,0.00,WeatherDisplay:10.37,2013-12-10 11:10:00,
2013-12-10 22:16:00,79.4,65.3,29.60,SSW,208,1.0,3.0,62,0.00,CLR,,0.00,WeatherDisplay:10.37,2013-12-10 11:16:00,
2013-12-10 22:21:00,79.3,65.2,29.60,SW,217,1.0,4.0,62,0.00,CLR,,0.00,WeatherDisplay:10.37,2013-12-10 11:21:00,
2013-12-10 22:25:00,79.2,65.0,29.60,SSW,213,1.0,5.0,62,0.00,CLR,,0.00,WeatherDisplay:10.37,2013-12-10 11:25:00,
2013-12-10 22:30:00,79.0,65.3,29.60,SSW,212,0.0,3.0,63,0.00,CLR,,0.00,WeatherDisplay:10.37,2013-12-10 11:30:00,
2013-12-10 22:35:00,78.8,65.1,29.61,SW,229,0.0,4.0,63,0.00,CLR,,0.00,WeatherDisplay:10.37,2013-12-10 11:35:00,
2013-12-10 22:40:00,78.6,65.0,29.60,SW,233,0.0,3.0,63,0.00,CLR,,0.00,WeatherDisplay:10.37,2013-12-10 11:40:00,
2013-12-10 22:45:00,78.4,65.2,29.60,SW,220,0.0,5.0,64,0.00,CLR,,0.00,WeatherDisplay:10.37,2013-12-10 11:45:00,
2013-12-10 22:50:00,78.1,64.9,29.60,SSW,212,1.0,7.0,64,0.00,CLR,,0.00,WeatherDisplay:10.37,2013-12-10 11:50:00,
2013-12-10 22:55:00,77.7,64.6,29.61,WSW,237,0.0,3.0,64,0.00,CLR,,0.00,WeatherDisplay:10.37,2013-12-10 11:55:00,
2013-12-10 23:00:00,77.5,64.8,29.61,WSW,255,0.0,2.0,65,0.00,CLR,,0.00,WeatherDisplay:10.37,2013-12-10 12:00:00,
2013-12-10 23:05:00,77.4,64.7,29.61,SW,235,1.0,5.0,65,0.00,CLR,,0.00,WeatherDisplay:10.37,2013-12-10 12:05:00,
2013-12-10 23:10:00,77.2,64.9,29.61,SW,227,0.0,2.0,66,0.00,CLR,,0.00,WeatherDisplay:10.37,2013-12-10 12:10:00,
2013-12-10 23:15:00,77.0,64.8,29.61,WSW,254,1.0,5.0,66,0.00,CLR,,0.00,WeatherDisplay:10.37,2013-12-10 12:15:00,
2013-12-10 23:20:00,76.8,65.0,29.61,WSW,250,1.0,4.0,67,0.00,CLR,,0.00,WeatherDisplay:10.37,2013-12-10 12:20:00,
2013-12-10 23:25:00,76.7,64.9,29.61,WSW,239,0.0,2.0,67,0.00,CLR,,0.00,WeatherDisplay:10.37,2013-12-10 12:25:00,
2013-12-10 23:30:00,76.6,64.9,29.61,SW,228,2.0,6.0,67,0.00,CLR,,0.00,WeatherDisplay:10.37,2013-12-10 12:30:00,
2013-12-10 23:35:00,76.5,65.1,29.61,WSW,243,0.0,2.0,68,0.00,CLR,,0.00,WeatherDisplay:10.37,2013-12-10 12:35:00,
2013-12-10 23:40:00,76.3,64.9,29.61,WSW,250,1.0,3.0,68,0.00,CLR,,0.00,WeatherDisplay:10.37,2013-12-10 12:40:00,
2013-12-10 23:45:00,76.3,64.9,29.61,SW,223,0.0,5.0,68,0.00,CLR,,0.00,WeatherDisplay:10.37,2013-12-10 12:45:00,
2013-12-10 23:50:00,76.2,64.9,29.61,SW,228,2.0,5.0,68,0.00,CLR,,0.00,WeatherDisplay:10.37,2013-12-10 12:50:00,
2013-12-10 23:55:00,75.9,64.6,29.61,SW,228,2.0,5.0,68,0.00,CLR,,0.00,WeatherDisplay:10.37,2013-12-10 12:55:00,